Time,TemperatureF,DewpointF,PressureIn,WindDirection,WindDirectionDegrees,WindSpeedMPH,WindSpeedGustMPH,Humidity,HourlyPrecipIn,Conditions,Clouds,dailyrainin,SoftwareType,DateUTC
2013-01-20 00:02:00,29.0,2.0,-100.00,North,3,2.0,3.0,30,-99.99,,,-99.99,,2013-01-20 07:02:00,
2013-01-20 00:11:00,29.0,3.0,-100.00,NNW,340,0.0,1.0,32,-99.99,,,-99.99,,2013-01-20 07:11:00,
2013-01-20 00:22:00,29.0,3.0,-100.00,NNW,340,0.0,1.0,32,-99.99,,,-99.99,,2013-01-20 07:22:00,
2013-01-20 00:32:00,29.0,3.0,-100.00,NNW,340,0.0,1.0,32,-99.99,,,-99.99,,2013-01-20 07:32:00,
2013-01-20 00:42:00,28.0,2.0,-100.00,North,0,0.0,0.0,33,-99.99,,,-99.99,,2013-01-20 07:42:00,
2013-01-20 00:52:00,28.0,2.0,-100.00,North,0,0.0,0.0,33,-99.99,,,-99.99,,2013-01-20 07:52:00,
2013-01-20 01:02:00,27.0,3.0,-100.00,West,272,0.0,2.0,34,-99.99,,,-99.99,,2013-01-20 08:02:00,
2013-01-20 01:12:00,28.0,3.0,-100.00,South,185,4.0,6.0,33,-99.99,,,-99.99,,2013-01-20 08:12:00,
2013-01-20 01:22:00,28.0,3.0,-100.00,South,185,4.0,6.0,33,-99.99,,,-99.99,,2013-01-20 08:22:00,
2013-01-20 01:32:00,28.0,3.0,-100.00,South,185,4.0,6.0,33,-99.99,,,-99.99,,2013-01-20 08:32:00,
2013-01-20 01:42:00,28.0,1.0,-100.00,South,177,0.0,1.0,30,-99.99,,,-99.99,,2013-01-20 08:42:00,
2013-01-20 01:52:00,28.0,1.0,-100.00,South,177,0.0,1.0,30,-99.99,,,-99.99,,2013-01-20 08:52:00,
2013-01-20 02:02:00,29.0,0.0,-100.00,WNW,303,1.0,3.0,27,-99.99,,,-99.99,,2013-01-20 09:02:00,
2013-01-20 02:12:00,29.0,0.0,-100.00,NNW,333,2.0,3.0,27,-99.99,,,-99.99,,2013-01-20 09:12:00,
2013-01-20 02:22:00,29.0,0.0,-100.00,NNW,333,2.0,3.0,27,-99.99,,,-99.99,,2013-01-20 09:22:00,
2013-01-20 02:33:00,29.0,0.0,-100.00,NNW,333,2.0,3.0,27,-99.99,,,-99.99,,2013-01-20 09:33:00,
2013-01-20 02:42:00,29.0,0.0,-100.00,WNW,301,1.0,3.0,28,-99.99,,,-99.99,,2013-01-20 09:42:00,
2013-01-20 02:52:00,28.0,-1.0,-100.00,North,0,0.0,0.0,27,-99.99,,,-99.99,,2013-01-20 09:52:00,
2013-01-20 03:02:00,28.0,-1.0,-100.00,North,0,0.0,0.0,27,-99.99,,,-99.99,,2013-01-20 10:02:00,
2013-01-20 03:11:00,28.0,0.0,-100.00,NNE,18,1.0,3.0,28,-99.99,,,-99.99,,2013-01-20 10:11:00,
2013-01-20 03:22:00,28.0,0.0,-100.00,NNE,18,1.0,3.0,28,-99.99,,,-99.99,,2013-01-20 10:22:00,
2013-01-20 03:32:00,28.0,0.0,-100.00,NNE,18,1.0,3.0,28,-99.99,,,-99.99,,2013-01-20 10:32:00,
2013-01-20 03:42:00,27.0,1.0,-100.00,SW,235,0.0,2.0,30,-99.99,,,-99.99,,2013-01-20 10:42:00,
2013-01-20 03:52:00,27.0,1.0,-100.00,SW,235,0.0,2.0,30,-99.99,,,-99.99,,2013-01-20 10:52:00,
2013-01-20 04:02:00,27.0,0.0,-100.00,SSW,207,0.0,3.0,29,-99.99,,,-99.99,,2013-01-20 11:02:00,
2013-01-20 04:12:00,27.0,-2.0,-100.00,North,357,1.0,3.0,27,-99.99,,,-99.99,,2013-01-20 11:12:00,
2013-01-20 04:22:00,27.0,-2.0,-100.00,North,357,1.0,3.0,27,-99.99,,,-99.99,,2013-01-20 11:22:00,
2013-01-20 04:32:00,27.0,-2.0,-100.00,North,357,1.0,3.0,27,-99.99,,,-99.99,,2013-01-20 11:32:00,
2013-01-20 04:42:00,28.0,-3.0,-100.00,NNW,335,1.0,3.0,25,-99.99,,,-99.99,,2013-01-20 11:42:00,
2013-01-20 04:53:00,28.0,-3.0,-100.00,NNW,335,1.0,3.0,25,-99.99,,,-99.99,,2013-01-20 11:53:00,
2013-01-20 05:02:00,28.0,-3.0,-100.00,NNW,335,1.0,3.0,25,-99.99,,,-99.99,,2013-01-20 12:02:00,
2013-01-20 05:12:00,28.0,-2.0,-100.00,North,10,2.0,3.0,26,-99.99,,,-99.99,,2013-01-20 12:12:00,
2013-01-20 05:22:00,28.0,-2.0,-100.00,North,10,2.0,3.0,26,-99.99,,,-99.99,,2013-01-20 12:22:00,
2013-01-20 05:33:00,28.0,-2.0,-100.00,North,10,2.0,3.0,26,-99.99,,,-99.99,,2013-01-20 12:33:00,
2013-01-20 05:42:00,28.0,-3.0,-100.00,NNE,15,1.0,4.0,25,-99.99,,,-99.99,,2013-01-20 12:42:00,
2013-01-20 05:53:00,28.0,-3.0,-100.00,NNE,15,1.0,4.0,25,-99.99,,,-99.99,,2013-01-20 12:53:00,
2013-01-20 06:02:00,27.0,-1.0,-100.00,North,358,2.0,3.0,28,-99.99,,,-99.99,,2013-01-20 13:02:00,
2013-01-20 06:12:00,28.0,-3.0,-100.00,NNW,344,2.0,6.0,25,-99.99,,,-99.99,,2013-01-20 13:12:00,
2013-01-20 06:23:00,28.0,-3.0,-100.00,NNW,344,2.0,6.0,25,-99.99,,,-99.99,,2013-01-20 13:23:00,
2013-01-20 06:32:00,28.0,-3.0,-100.00,NNW,344,2.0,6.0,25,-99.99,,,-99.99,,2013-01-20 13:32:00,
2013-01-20 06:42:00,29.0,-6.0,-100.00,NNW,338,3.0,9.0,21,-99.99,,,-99.99,,2013-01-20 13:42:00,
2013-01-20 06:53:00,29.0,-6.0,-100.00,NNW,338,3.0,9.0,21,-99.99,,,-99.99,,2013-01-20 13:53:00,
2013-01-20 07:02:00,28.0,-2.0,-100.00,North,355,2.0,4.0,26,-99.99,,,-99.99,,2013-01-20 14:02:00,
2013-01-20 07:12:00,28.0,-4.0,-100.00,North,350,2.0,4.0,24,-99.99,,,-99.99,,2013-01-20 14:12:00,
2013-01-20 07:22:00,28.0,-4.0,-100.00,North,350,2.0,4.0,24,-99.99,,,-99.99,,2013-01-20 14:22:00,
2013-01-20 07:32:00,28.0,-4.0,-100.00,North,350,2.0,4.0,24,-99.99,,,-99.99,,2013-01-20 14:32:00,
2013-01-20 07:42:00,29.0,-8.0,-100.00,NW,321,6.0,8.0,19,-99.99,,,-99.99,,2013-01-20 14:42:00,
2013-01-20 07:53:00,29.0,-8.0,-100.00,NW,321,6.0,8.0,19,-99.99,,,-99.99,,2013-01-20 14:53:00,
2013-01-20 08:03:00,29.0,-9.0,-100.00,NNW,328,5.0,7.0,18,-99.99,,,-99.99,,2013-01-20 15:03:00,
2013-01-20 08:12:00,29.0,-8.0,-100.00,NW,313,6.0,11.0,18,-99.99,,,-99.99,,2013-01-20 15:12:00,
2013-01-20 08:22:00,29.0,-8.0,-100.00,NW,313,6.0,11.0,18,-99.99,,,-99.99,,2013-01-20 15:22:00,
2013-01-20 08:32:00,29.0,-8.0,-100.00,NW,313,6.0,11.0,18,-99.99,,,-99.99,,2013-01-20 15:32:00,
2013-01-20 08:42:00,29.0,-8.0,-100.00,NW,311,8.0,14.0,19,-99.99,,,-99.99,,2013-01-20 15:42:00,
2013-01-20 08:53:00,29.0,-8.0,-100.00,NW,311,8.0,14.0,19,-99.99,,,-99.99,,2013-01-20 15:53:00,
2013-01-20 09:02:00,28.0,-6.0,-100.00,NNW,347,2.0,5.0,21,-99.99,,,-99.99,,2013-01-20 16:02:00,
2013-01-20 09:12:00,28.0,-6.0,-100.00,NW,326,1.0,4.0,21,-99.99,,,-99.99,,2013-01-20 16:12:00,
2013-01-20 09:22:00,28.0,-6.0,-100.00,NW,326,1.0,4.0,21,-99.99,,,-99.99,,2013-01-20 16:22:00,
2013-01-20 09:32:00,28.0,-6.0,-100.00,NW,326,1.0,4.0,21,-99.99,,,-99.99,,2013-01-20 16:32:00,
2013-01-20 09:42:00,30.0,-7.0,-100.00,NNW,339,1.0,3.0,19,-99.99,,,-99.99,,2013-01-20 16:42:00,
2013-01-20 09:53:00,30.0,-7.0,-100.00,NNW,339,1.0,3.0,19,-99.99,,,-99.99,,2013-01-20 16:53:00,
2013-01-20 10:02:00,31.0,-7.0,-100.00,North,359,2.0,3.0,18,-99.99,,,-99.99,,2013-01-20 17:02:00,
2013-01-20 10:12:00,31.0,-7.0,-100.00,NE,39,2.0,3.0,18,-99.99,,,-99.99,,2013-01-20 17:12:00,
2013-01-20 10:22:00,31.0,-7.0,-100.00,NE,39,2.0,3.0,18,-99.99,,,-99.99,,2013-01-20 17:22:00,
2013-01-20 10:32:00,31.0,-7.0,-100.00,NE,39,2.0,3.0,18,-99.99,,,-99.99,,2013-01-20 17:32:00,
2013-01-20 10:42:00,31.0,-7.0,-100.00,NW,315,0.0,1.0,18,-99.99,,,-99.99,,2013-01-20 17:42:00,
2013-01-20 10:53:00,31.0,-7.0,-100.00,NW,315,0.0,1.0,18,-99.99,,,-99.99,,2013-01-20 17:53:00,
2013-01-20 11:02:00,32.0,-7.0,-100.00,NNW,337,2.0,3.0,18,-99.99,,,-99.99,,2013-01-20 18:02:00,
2013-01-20 11:12:00,32.0,-6.0,-100.00,NE,43,1.0,2.0,18,-99.99,,,-99.99,,2013-01-20 18:12:00,
2013-01-20 11:23:00,32.0,-6.0,-100.00,NE,43,1.0,2.0,18,-99.99,,,-99.99,,2013-01-20 18:23:00,
2013-01-20 11:33:00,32.0,-6.0,-100.00,NE,43,1.0,2.0,18,-99.99,,,-99.99,,2013-01-20 18:33:00,
2013-01-20 11:42:00,30.0,3.0,-100.00,SSE,163,1.0,4.0,31,-99.99,,,-99.99,,2013-01-20 18:42:00,
2013-01-20 11:53:00,30.0,3.0,-100.00,SSE,163,1.0,4.0,31,-99.99,,,-99.99,,2013-01-20 18:53:00,
2013-01-20 12:02:00,31.0,2.0,-100.00,South,190,1.0,4.0,27,-99.99,,,-99.99,,2013-01-20 19:02:00,
2013-01-20 12:12:00,33.0,3.0,-100.00,SSW,197,1.0,4.0,26,-99.99,,,-99.99,,2013-01-20 19:12:00,
2013-01-20 12:22:00,33.0,3.0,-100.00,SSW,197,1.0,4.0,26,-99.99,,,-99.99,,2013-01-20 19:22:00,
2013-01-20 12:33:00,33.0,3.0,-100.00,SSW,197,1.0,4.0,26,-99.99,,,-99.99,,2013-01-20 19:33:00,
2013-01-20 12:42:00,36.0,7.0,-100.00,WSW,254,0.0,3.0,29,-99.99,,,-99.99,,2013-01-20 19:42:00,
2013-01-20 12:53:00,36.0,7.0,-100.00,WSW,254,0.0,3.0,29,-99.99,,,-99.99,,2013-01-20 19:53:00,
2013-01-20 13:02:00,39.0,8.0,-100.00,SSE,154,1.0,3.0,27,-99.99,,,-99.99,,2013-01-20 20:02:00,
2013-01-20 13:12:00,41.0,8.0,-100.00,South,173,1.0,4.0,25,-99.99,,,-99.99,,2013-01-20 20:12:00,
2013-01-20 13:22:00,41.0,8.0,-100.00,South,173,1.0,4.0,25,-99.99,,,-99.99,,2013-01-20 20:22:00,
2013-01-20 13:42:00,35.0,6.0,-100.00,NW,320,1.0,3.0,29,-99.99,,,-99.99,,2013-01-20 20:42:00,
2013-01-20 13:53:00,35.0,6.0,-100.00,NW,320,1.0,3.0,29,-99.99,,,-99.99,,2013-01-20 20:53:00,
2013-01-20 14:03:00,40.0,8.0,-100.00,North,358,1.0,3.0,25,-99.99,,,-99.99,,2013-01-20 21:03:00,
2013-01-20 14:12:00,38.0,8.0,-100.00,NNE,17,1.0,3.0,27,-99.99,,,-99.99,,2013-01-20 21:12:00,
2013-01-20 14:22:00,38.0,8.0,-100.00,NNE,17,1.0,3.0,27,-99.99,,,-99.99,,2013-01-20 21:22:00,
2013-01-20 14:33:00,38.0,8.0,-100.00,NNE,17,1.0,3.0,27,-99.99,,,-99.99,,2013-01-20 21:33:00,
2013-01-20 14:43:00,35.0,9.0,-100.00,North,351,1.0,2.0,32,-99.99,,,-99.99,,2013-01-20 21:43:00,
2013-01-20 14:53:00,35.0,9.0,-100.00,North,351,1.0,2.0,32,-99.99,,,-99.99,,2013-01-20 21:53:00,
2013-01-20 15:03:00,33.0,8.0,-100.00,North,351,1.0,3.0,34,-99.99,,,-99.99,,2013-01-20 22:03:00,
2013-01-20 15:12:00,34.0,8.0,-100.00,NNE,18,1.0,3.0,33,-99.99,,,-99.99,,2013-01-20 22:12:00,
2013-01-20 15:22:00,34.0,8.0,-100.00,NNE,18,1.0,3.0,33,-99.99,,,-99.99,,2013-01-20 22:22:00,
2013-01-20 15:32:00,34.0,8.0,-100.00,NNE,18,1.0,3.0,33,-99.99,,,-99.99,,2013-01-20 22:32:00,
2013-01-20 15:42:00,34.0,8.0,-100.00,North,3,2.0,3.0,32,-99.99,,,-99.99,,2013-01-20 22:42:00,
2013-01-20 15:53:00,33.0,8.0,-100.00,NNW,338,1.0,3.0,34,-99.99,,,-99.99,,2013-01-20 22:53:00,
2013-01-20 16:03:00,33.0,8.0,-100.00,NNW,338,1.0,3.0,34,-99.99,,,-99.99,,2013-01-20 23:03:00,
2013-01-20 16:12:00,33.0,7.0,-100.00,WNW,301,0.0,2.0,32,-99.99,,,-99.99,,2013-01-20 23:12:00,
2013-01-20 16:22:00,33.0,7.0,-100.00,WNW,301,0.0,2.0,32,-99.99,,,-99.99,,2013-01-20 23:22:00,
2013-01-20 16:33:00,33.0,7.0,-100.00,WNW,301,0.0,2.0,32,-99.99,,,-99.99,,2013-01-20 23:33:00,
2013-01-20 16:42:00,33.0,5.0,-100.00,NW,317,1.0,3.0,28,-99.99,,,-99.99,,2013-01-20 23:42:00,
2013-01-20 16:53:00,33.0,5.0,-100.00,NW,317,1.0,3.0,28,-99.99,,,-99.99,,2013-01-20 23:53:00,
2013-01-20 17:02:00,32.0,4.0,-100.00,North,5,1.0,2.0,28,-99.99,,,-99.99,,2013-01-21 00:02:00,
2013-01-20 17:12:00,30.0,5.0,-100.00,North,6,2.0,3.0,33,-99.99,,,-99.99,,2013-01-21 00:12:00,
2013-01-20 17:22:00,30.0,5.0,-100.00,North,6,2.0,3.0,33,-99.99,,,-99.99,,2013-01-21 00:22:00,
2013-01-20 17:32:00,30.0,5.0,-100.00,North,6,2.0,3.0,33,-99.99,,,-99.99,,2013-01-21 00:32:00,
2013-01-20 17:42:00,29.0,2.0,-100.00,NW,320,1.0,4.0,30,-99.99,,,-99.99,,2013-01-21 00:42:00,
2013-01-20 17:53:00,29.0,2.0,-100.00,NW,320,1.0,4.0,30,-99.99,,,-99.99,,2013-01-21 00:53:00,
2013-01-20 18:03:00,29.0,3.0,-100.00,NNW,341,3.0,5.0,31,-99.99,,,-99.99,,2013-01-21 01:03:00,
2013-01-20 18:12:00,29.0,3.0,-100.00,NNW,338,1.0,3.0,31,-99.99,,,-99.99,,2013-01-21 01:12:00,
2013-01-20 18:22:00,29.0,3.0,-100.00,NNW,338,1.0,3.0,31,-99.99,,,-99.99,,2013-01-21 01:22:00,
2013-01-20 18:32:00,29.0,3.0,-100.00,NNW,338,1.0,3.0,31,-99.99,,,-99.99,,2013-01-21 01:32:00,
2013-01-20 18:43:00,28.0,4.0,-100.00,NNW,330,2.0,4.0,35,-99.99,,,-99.99,,2013-01-21 01:43:00,
2013-01-20 18:53:00,28.0,4.0,-100.00,NNW,330,2.0,4.0,35,-99.99,,,-99.99,,2013-01-21 01:53:00,
2013-01-20 19:03:00,28.0,4.0,-100.00,NNW,330,2.0,4.0,35,-99.99,,,-99.99,,2013-01-21 02:03:00,
2013-01-20 19:12:00,27.0,5.0,-100.00,NE,41,1.0,3.0,37,-99.99,,,-99.99,,2013-01-21 02:12:00,
2013-01-20 19:23:00,27.0,5.0,-100.00,NE,41,1.0,3.0,37,-99.99,,,-99.99,,2013-01-21 02:23:00,
2013-01-20 19:33:00,27.0,5.0,-100.00,NE,41,1.0,3.0,37,-99.99,,,-99.99,,2013-01-21 02:33:00,
2013-01-20 19:42:00,26.0,5.0,-100.00,SSE,158,1.0,3.0,40,-99.99,,,-99.99,,2013-01-21 02:42:00,
2013-01-20 19:53:00,26.0,5.0,-100.00,SSE,158,1.0,3.0,40,-99.99,,,-99.99,,2013-01-21 02:53:00,
2013-01-20 20:02:00,27.0,1.0,-100.00,WNW,299,2.0,4.0,32,-99.99,,,-99.99,,2013-01-21 03:02:00,
2013-01-20 20:12:00,28.0,-4.0,-100.00,NNW,346,3.0,5.0,24,-99.99,,,-99.99,,2013-01-21 03:12:00,
2013-01-20 20:23:00,28.0,-4.0,-100.00,NNW,346,3.0,5.0,24,-99.99,,,-99.99,,2013-01-21 03:23:00,
2013-01-20 20:32:00,28.0,-4.0,-100.00,NNW,346,3.0,5.0,24,-99.99,,,-99.99,,2013-01-21 03:32:00,
2013-01-20 20:43:00,28.0,-1.0,-100.00,NE,38,1.0,3.0,26,-99.99,,,-99.99,,2013-01-21 03:43:00,
2013-01-20 20:53:00,28.0,-1.0,-100.00,NE,38,1.0,3.0,26,-99.99,,,-99.99,,2013-01-21 03:53:00,
2013-01-20 21:02:00,28.0,-1.0,-100.00,SE,140,1.0,2.0,27,-99.99,,,-99.99,,2013-01-21 04:02:00,
2013-01-20 21:12:00,27.0,-2.0,-100.00,NNW,339,0.0,2.0,27,-99.99,,,-99.99,,2013-01-21 04:12:00,
2013-01-20 21:22:00,27.0,-2.0,-100.00,NNW,339,0.0,2.0,27,-99.99,,,-99.99,,2013-01-21 04:22:00,
2013-01-20 21:32:00,27.0,-2.0,-100.00,NNW,339,0.0,2.0,27,-99.99,,,-99.99,,2013-01-21 04:32:00,
2013-01-20 21:42:00,28.0,-5.0,-100.00,NNW,327,3.0,4.0,23,-99.99,,,-99.99,,2013-01-21 04:42:00,
2013-01-20 21:53:00,28.0,-5.0,-100.00,NNW,327,3.0,4.0,23,-99.99,,,-99.99,,2013-01-21 04:53:00,
2013-01-20 22:03:00,28.0,-5.0,-100.00,NNW,336,4.0,5.0,23,-99.99,,,-99.99,,2013-01-21 05:03:00,
2013-01-20 22:12:00,27.0,-4.0,-100.00,NNW,339,4.0,6.0,24,-99.99,,,-99.99,,2013-01-21 05:12:00,
2013-01-20 22:22:00,27.0,-4.0,-100.00,NNW,339,4.0,6.0,24,-99.99,,,-99.99,,2013-01-21 05:22:00,
2013-01-20 22:33:00,27.0,-4.0,-100.00,NNW,339,4.0,6.0,24,-99.99,,,-99.99,,2013-01-21 05:33:00,
2013-01-20 22:42:00,27.0,-4.0,-100.00,NNW,342,3.0,4.0,25,-99.99,,,-99.99,,2013-01-21 05:42:00,
2013-01-20 22:53:00,27.0,-4.0,-100.00,NNW,342,3.0,4.0,25,-99.99,,,-99.99,,2013-01-21 05:53:00,
2013-01-20 23:02:00,27.0,-4.0,-100.00,NNW,348,3.0,4.0,25,-99.99,,,-99.99,,2013-01-21 06:02:00,
2013-01-20 23:12:00,27.0,-4.0,-100.00,NNW,346,3.0,4.0,25,-99.99,,,-99.99,,2013-01-21 06:12:00,
2013-01-20 23:23:00,27.0,-4.0,-100.00,NNW,346,3.0,4.0,25,-99.99,,,-99.99,,2013-01-21 06:23:00,
2013-01-20 23:32:00,27.0,-4.0,-100.00,NNW,346,3.0,4.0,25,-99.99,,,-99.99,,2013-01-21 06:32:00,
2013-01-20 23:43:00,27.0,-6.0,-100.00,NW,308,1.0,5.0,22,-99.99,,,-99.99,,2013-01-21 06:43:00,
2013-01-20 23:53:00,27.0,-6.0,-100.00,NW,308,1.0,5.0,22,-99.99,,,-99.99,,2013-01-21 06:53:00,